FW0209 Weather Reports


time (UTC)temp
C
wind
direction
speed
KPH
gust
KPH
rain 1hr
cm
rain 24hr
cm
rain mn
cm
humidity
%
barometer
mb
20260506073026 12 185 0.0 0.0 0.20 1.19 0.15 88 1017.0
20260506071525 12 184 0.0 0.0 0.20 1.19 0.15 88 1017.0
20260506061535 12 181 0.0 0.0 0.00 1.40 0.10 88 1016.9
20260506044520 11 178 0.0 0.0 0.00 2.49 0.10 87 1016.7
20260506043016 11 178 0.0 0.0 0.00 2.49 0.10 87 1016.7
20260506041536 11 178 0.0 0.0 0.20 2.49 0.10 86 1016.7
20260506040017 11 179 0.0 0.0 0.20 2.49 0.10 86 1016.8
20260506034537 11 178 0.0 0.0 0.30 2.49 0.10 85 1016.8
20260506033018 11 169 0.0 0.0 0.41 2.49 0.10 85 1016.8
20260506031515 11 167 0.0 0.0 0.20 2.31 0.05 84 1016.8
20260506030053 12 167 0.0 0.0 0.20 2.31 0.05 83 1016.7
20260506024531 12 175 0.0 0.0 0.10 2.21 0.03 82 1016.7
20260506023030 12 174 0.0 0.0 0.00 2.11 0.00 82 1016.7
20260506021527 12 174 0.0 0.0 0.00 2.11 0.00 82 1016.7
20260506020029 12 175 0.0 0.0 0.00 2.11 0.00 82 1016.9
20260506014529 12 175 0.0 0.0 0.00 2.11 0.00 81 1016.9
20260506013019 12 175 0.0 0.0 0.00 2.11 0.00 81 1016.9
20260506011521 12 174 0.0 0.0 0.00 2.11 0.00 81 1017.1
20260506010016 12 175 0.0 0.0 0.00 2.11 0.00 81 1017.2
20260506004534 12 176 0.0 0.0 0.00 2.11 0.00 81 1017.4
20260506003044 12 176 0.0 0.0 0.00 2.11 0.00 80 1017.4
20260506001519 12 177 0.0 0.0 0.00 2.11 0.00 80 1017.4
20260506000059 12 177 0.0 0.0 0.00 2.11 0.00 80 1017.6
20260505234553 12 176 0.0 0.0 0.00 2.11 0.00 79 1017.6
20260505233030 12 175 0.0 0.0 0.00 2.11 0.00 79 1017.6
20260505231547 12 175 0.0 0.0 0.00 2.11 0.00 79 1017.8
20260505230024 12 176 0.0 0.0 0.00 2.11 0.00 79 1018.0
20260505224522 12 177 0.0 0.0 0.00 2.11 0.53 79 1018.0
20260505223022 12 176 0.0 0.0 0.00 2.11 0.53 78 1018.3
20260505221521 12 176 0.0 0.0 0.00 2.11 0.53 78 1018.3
20260505220034 12 175 0.0 0.0 0.00 2.11 0.53 78 1018.4
20260505214537 12 177 0.0 0.0 0.00 2.11 0.53 79 1018.4
20260505213024 12 176 0.0 0.0 0.00 2.11 0.53 78 1018.6
20260505211522 12 176 0.0 0.0 0.00 2.11 0.53 78 1018.5
20260505210023 12 175 0.0 0.0 0.00 2.11 0.53 78 1018.5
20260505204521 12 176 0.0 0.0 0.00 2.11 0.53 78 1018.6
20260505203017 12 175 0.0 0.0 0.00 2.11 0.53 78 1018.6
20260505201517 12 176 0.0 0.0 0.00 2.11 0.53 78 1018.6
20260505200016 13 179 0.0 0.0 0.00 2.11 0.53 77 1018.6
20260505194515 13 180 0.0 0.0 0.00 2.11 0.53 76 1018.4
20260505193032 13 184 0.0 0.0 0.00 2.11 0.53 75 1018.0
20260505191525 13 190 0.0 0.0 0.00 2.11 0.53 74 1017.9
20260505190042 13 189 0.0 0.0 0.00 2.11 0.53 74 1018.0
20260505184534 13 187 0.0 0.0 0.00 2.11 0.53 73 1017.8
20260505183021 13 195 0.0 0.0 0.00 2.11 0.53 72 1017.9
20260505181522 14 195 0.0 0.0 0.00 2.11 0.53 72 1017.8
20260505180017 14 199 0.0 0.0 0.00 2.11 0.53 71 1017.8
20260505174514 14 196 0.0 0.0 0.00 2.11 0.53 71 1018.0
20260505173015 15 202 0.0 0.0 0.00 2.11 0.53 71 1017.8
20260505171532 15 202 0.0 0.0 0.00 2.11 0.53 71 1017.6
20260505170021 15 200 0.0 0.0 0.00 2.11 0.53 71 1017.8
20260505164523 15 202 0.0 0.0 0.00 2.11 0.53 70 1017.9
20260505163041 15 202 0.0 0.0 0.00 2.11 0.53 70 1017.9
20260505161521 15 203 0.0 0.0 0.00 2.11 0.53 70 1018.0
20260505153019 15 204 0.0 0.0 0.00 2.11 0.53 69 1018.4
20260505151518 15 197 0.0 0.0 0.00 2.11 0.53 67 1018.5
20260505124514 15 275 3.2 14.5 0.00 2.11 0.53 73 1019.1
20260505123051 13 182 4.8 6.4 0.00 2.11 0.53 73 1019.2
20260505121528 13 175 4.8 9.7 0.00 2.11 0.53 76 1019.5
20260505120030 13 178 4.8 11.3 0.00 2.11 0.53 76 1019.5
20260505114526 13 173 0.0 6.4 0.00 2.11 0.53 76 1019.5
20260505113023 13 171 6.4 12.9 0.00 2.11 0.53 75 1019.6
20260505111526 13 179 3.2 14.5 0.00 2.11 0.53 75 1019.6
20260505101549 12 217 0.0 0.0 0.00 2.11 0.53 82 1019.7
20260505100028 12 229 6.4 9.7 0.00 2.11 0.53 83 1019.9
20260505094527 12 228 4.8 9.7 0.00 2.11 0.53 83 1019.7
20260505093018 12 228 6.4 11.3 0.00 2.11 0.53 84 1019.6
20260505091542 12 229 0.0 0.0 0.00 2.11 0.53 85 1019.6
20260505090017 12 232 0.0 0.0 0.00 2.11 0.53 85 1019.5
20260505084535 11 224 0.0 0.0 0.10 2.11 0.53 87 1019.5
20260505083022 11 226 0.0 0.0 0.20 2.11 0.53 87 1019.5
20260505081519 11 215 0.0 0.0 0.41 2.11 0.53 87 1019.7